Colorado City, AZ

7:31 PM MST on November 21, 2019 (GMT -0700)
Colorado City Municipal

Weather History for KAZC - September, 2019

Change the Weather History Date:

Thursday, September 12, 2019

  Actual Average (KSGU) Record (KSGU)
Temperature  
Mean Temperature 65 °F -  
Max Temperature 84 °F 92 °F 105 °F (1971)
Min Temperature 46 °F 60 °F 46 °F (1942)
Growing Degree Days 15 (Base 50)    
Moisture  
Dew Point 29 °F    
Average Humidity 26    
Maximum Humidity 57    
Minimum Humidity 12    
Precipitation  
Precipitation 0.00 in - - ()
Sea Level Pressure  
Sea Level Pressure 30.29 in    
Wind  
Wind Speed 5 mph (NE)    
Max Wind Speed 13 mph    
Max Gust Speed 17 mph    
Visibility 10 miles    
Events      
Averages and records for this station are not official NWS values.
T = Trace of Precipitation, MM = Missing Value Source: NWS Daily Summary

Daily Weather History Graph

Daily Weather History Graph

Search for Another Location

Airport or City:

Astronomy

Sep. 12, 2019 Rise Set
Actual Time 6:11 AM MST 6:44 PM MST
Civil Twilight 5:45 AM MST 7:10 PM MST
Nautical Twilight 5:14 AM MST 7:41 PM MST
Astronomical Twilight 4:43 AM MST 8:12 PM MST
Moon 6:27 PM MST (9/12) 4:39 AM MST (9/12)
Length of Visible Light 13h 24m
Length of Day
12h 32m
Waxing Gibbous, 98% of the Moon is Illuminated
Sep 12
Waxing Gibbous
Sep 13
Full
Sep 21
Last Quarter
Sep 28
New
Oct 5
First Quarter

Hourly Weather History & Observations

Time (MST) Temp. Windchill Dew Point Humidity Pressure Visibility Wind Dir Wind Speed Gust Speed Precip Events Conditions
12:15 AM 64.4 °F - 32.0 °F 30% 30.24 in 10.0 mi NE 11.5 mph 17.3 mph N/A   Clear
12:35 AM 64.4 °F - 33.8 °F 32% 30.26 in - NE 6.9 mph - N/A   Clear
12:55 AM 64.4 °F - 33.8 °F 32% 30.26 in 10.0 mi North 4.6 mph - N/A   Clear
1:15 AM 62.6 °F - 33.8 °F 34% 30.26 in 10.0 mi Calm Calm - N/A   Clear
1:35 AM 62.6 °F - 33.8 °F 34% 30.27 in 10.0 mi Calm Calm - N/A   Clear
1:55 AM 59.0 °F - 32.0 °F 36% 30.27 in 10.0 mi South 3.5 mph - N/A   Clear
2:15 AM 60.8 °F - 32.0 °F 34% 30.27 in 10.0 mi Calm Calm - N/A   Clear
2:35 AM 59.0 °F - 32.0 °F 36% 30.27 in 10.0 mi SE 9.2 mph - N/A   Clear
2:55 AM 59.0 °F - 32.0 °F 36% 30.28 in 10.0 mi ENE 6.9 mph - N/A   Clear
3:15 AM 59.0 °F - 32.0 °F 36% 30.29 in - East 3.5 mph - N/A   Clear
3:35 AM 55.4 °F - 33.8 °F 44% 30.30 in - Calm Calm - N/A   Clear
3:55 AM 53.6 °F - 33.8 °F 47% 30.30 in 10.0 mi Calm Calm - N/A   Clear
4:15 AM 53.6 °F - 32.0 °F 44% 30.30 in 10.0 mi Calm Calm - N/A   Clear
4:35 AM 51.8 °F - 32.0 °F 47% 30.31 in - Calm Calm - N/A   Clear
4:55 AM 48.2 °F - 32.0 °F 54% 30.31 in - Calm Calm - N/A   Clear
5:15 AM 46.4 °F 44.3 °F 32.0 °F 57% 30.32 in 10.0 mi South 4.6 mph - N/A   Clear
5:35 AM 50.0 °F - 32.0 °F 50% 30.32 in 10.0 mi Calm Calm - N/A   Clear
5:55 AM 51.8 °F - 33.8 °F 50% 30.33 in 10.0 mi NNE 8.1 mph - N/A   Clear
6:15 AM 46.4 °F 44.3 °F 32.0 °F 57% 30.33 in 10.0 mi SSE 4.6 mph - N/A   Clear
6:35 AM 50.0 °F - 32.0 °F 50% 30.34 in 10.0 mi SE 3.5 mph - N/A   Clear
6:55 AM 60.8 °F - 32.0 °F 34% 30.34 in 10.0 mi NE 8.1 mph - N/A   Clear
7:15 AM 62.6 °F - 32.0 °F 32% 30.34 in 10.0 mi NE 9.2 mph - N/A   Clear
7:35 AM 66.2 °F - 32.0 °F 28% 30.35 in 10.0 mi NE 12.7 mph 16.1 mph N/A   Clear
7:55 AM 68.0 °F - 32.0 °F 26% 30.35 in 10.0 mi NE 9.2 mph 17.3 mph N/A   Clear
8:15 AM 68.0 °F - 32.0 °F 26% 30.36 in 10.0 mi NE 6.9 mph - N/A   Clear
8:35 AM 69.8 °F - 32.0 °F 25% 30.36 in 10.0 mi NE 8.1 mph - N/A   Clear
8:55 AM 71.6 °F - 30.2 °F 22% 30.36 in 10.0 mi Calm Calm - N/A   Clear
9:15 AM 73.4 °F - 30.2 °F 20% 30.36 in 10.0 mi ENE 8.1 mph - N/A   Clear
9:35 AM 73.4 °F - 30.2 °F 20% 30.36 in 10.0 mi ENE 9.2 mph - N/A   Clear
9:55 AM 75.2 °F - 28.4 °F 18% 30.36 in 10.0 mi ENE 9.2 mph 16.1 mph N/A   Clear
10:15 AM 77.0 °F - 28.4 °F 17% 30.36 in 10.0 mi NE 8.1 mph - N/A   Clear
10:35 AM 77.0 °F - 28.4 °F 17% 30.35 in 10.0 mi East 4.6 mph - N/A   Clear
10:55 AM 78.8 °F - 28.4 °F 16% 30.35 in 10.0 mi Calm Calm - N/A   Clear
11:15 AM 77.0 °F - 28.4 °F 17% 30.35 in 10.0 mi North 3.5 mph - N/A   Clear
11:35 AM 78.8 °F - 26.6 °F 15% 30.35 in 10.0 mi WNW 5.8 mph - N/A   Clear
11:55 AM 78.8 °F - 26.6 °F 15% 30.34 in 10.0 mi WSW 3.5 mph - N/A   Clear
12:15 PM 78.8 °F - 26.6 °F 15% 30.33 in 10.0 mi NW 6.9 mph - N/A   Clear
12:35 PM 80.6 °F - 28.4 °F 15% 30.32 in 10.0 mi NE 5.8 mph - N/A   Clear
12:55 PM 80.6 °F - 26.6 °F 14% 30.31 in 10.0 mi NE 6.9 mph - N/A   Clear
1:15 PM 82.4 °F - 26.6 °F 13% 30.31 in 10.0 mi South 4.6 mph - N/A   Clear
1:35 PM 82.4 °F - 28.4 °F 14% 30.30 in 10.0 mi NNW 5.8 mph - N/A   Clear
2:15 PM 82.4 °F - 26.6 °F 13% 30.28 in 10.0 mi WNW 4.6 mph - N/A   Clear
2:35 PM 82.4 °F - 26.6 °F 13% 30.27 in 10.0 mi WSW 3.5 mph - N/A   Clear
2:55 PM 84.2 °F - 26.6 °F 12% 30.27 in 10.0 mi South 5.8 mph - N/A   Clear
3:15 PM 84.2 °F - 26.6 °F 12% 30.26 in 10.0 mi SW 3.5 mph - N/A   Clear
4:15 PM 84.2 °F - 26.6 °F 12% 30.25 in 10.0 mi Calm Calm - N/A   Clear
4:35 PM 82.4 °F - 26.6 °F 13% 30.24 in 10.0 mi NNE 3.5 mph - N/A   Clear
4:55 PM 84.2 °F - 26.6 °F 12% 30.24 in 10.0 mi West 3.5 mph - N/A   Clear
5:15 PM 82.4 °F - 26.6 °F 13% 30.23 in 10.0 mi Calm Calm - N/A   Clear
5:35 PM 82.4 °F - 26.6 °F 13% 30.24 in 10.0 mi West 6.9 mph - N/A   Clear
5:55 PM 82.4 °F - 26.6 °F 13% 30.23 in 10.0 mi West 5.8 mph - N/A   Clear
6:15 PM 80.6 °F - 24.8 °F 13% 30.23 in 10.0 mi West 5.8 mph - N/A   Clear
6:35 PM 78.8 °F - 23.0 °F 13% 30.24 in 10.0 mi WNW 5.8 mph - N/A   Clear
6:55 PM 73.4 °F - 23.0 °F 15% 30.24 in 10.0 mi West 5.8 mph - N/A   Clear
7:15 PM 71.6 °F - 23.0 °F 16% 30.24 in 10.0 mi Calm Calm - N/A   Clear
7:35 PM 68.0 °F - 21.2 °F 17% 30.25 in - Calm Calm - N/A   Clear
7:55 PM 64.4 °F - 26.6 °F 24% 30.26 in 10.0 mi Calm Calm - N/A   Clear
8:15 PM 62.6 °F - 26.6 °F 26% 30.26 in 10.0 mi North 3.5 mph - N/A   Clear
8:35 PM 60.8 °F - 26.6 °F 27% 30.26 in - NNE 5.8 mph - N/A   Clear
8:55 PM 57.2 °F - 23.0 °F 27% 30.27 in - Calm Calm - N/A   Clear
9:15 PM 55.4 °F - 23.0 °F 29% 30.27 in 10.0 mi Calm Calm - N/A   Clear
9:35 PM 55.4 °F - 23.0 °F 29% 30.27 in - Calm Calm - N/A   Clear
9:55 PM 57.2 °F - 23.0 °F 27% 30.27 in 10.0 mi Calm Calm - N/A   Clear
10:15 PM 59.0 °F - 23.0 °F 25% 30.28 in - Calm Calm - N/A   Clear
10:35 PM 55.4 °F - 23.0 °F 29% 30.28 in - SSE 3.5 mph - N/A   Clear
10:55 PM 59.0 °F - 24.8 °F 27% 30.28 in - NE 11.5 mph - N/A   Clear
11:15 PM 68.0 °F - 26.6 °F 21% 30.28 in 10.0 mi NE 9.2 mph - N/A   Clear
11:35 PM 68.0 °F - 26.6 °F 21% 30.28 in - NE 8.1 mph - N/A   Clear
11:55 PM 66.2 °F - 26.6 °F 23% 30.28 in 10.0 mi North - - N/A   Clear